Volver al catálogo

TIANHUI 5C

ActivoCienciaSSO
NORAD 60211·PAYLOAD·🇨🇳 China

Lanzado Jul 4, 2024 desde Taiyuan Satellite Launch Center

Loading…

Próximos Pases (próximas 24 horas)

TLE

ActualizadoSource: Space-Track

Época: Sep 14, 2026, 08:37 UTC

1 60211U 24126A   26257.35964617  .00000262  00000-0  34783-4 0  9997
2 60211  97.8215 263.6560 0001557  89.4530 270.6865 14.87579907119146

Sigue TIANHUI 5C en tiempo real con AllMySat

Download on the App Store